When you browse on this site, cookies collect data to enhance your experience and personalize the content and advertising you see.
Visit our Privacy Policy to learn more. By continuing to use the site, you agree to this use of cookies and data.
  • In Latvia
  • List of Countries
  • For 7 days
  • Water Temperature
  • Weather Map
  • Weather Widgets
  • user-avatar
    Login

    Hourly Weather Lukov Kordon

    Today, 31 May, Sunday

    Time Temperature Precipitation Wind Pressure Humidity
    00:00 +18°C° 0 mm 8 mps 755 mmHg 76%
    01:00 +17°C° 0 mm 8 mps 755 mmHg 76%
    02:00 +17°C° 0 mm 7 mps 755 mmHg 76%
    03:00 +16°C° 0 mm 7 mps 755 mmHg 77%
    04:00 +17°C° 0 mm 7 mps 756 mmHg 75%
    05:00 +17°C° 0 mm 7 mps 756 mmHg 73%
    06:00 +17°C° 0 mm 8 mps 756 mmHg 72%
    07:00 +20°C° 0 mm 7 mps 756 mmHg 66%
    08:00 +21°C° 0 mm 7 mps 756 mmHg 60%
    09:00 +22°C° 0 mm 7 mps 756 mmHg 55%
    10:00 +22°C° 0 mm 7 mps 756 mmHg 53%
    11:00 +23°C° 0 mm 7 mps 757 mmHg 51%
    12:00 +23°C° 0 mm 7 mps 757 mmHg 49%
    13:00 +24°C° 0 mm 7 mps 756 mmHg 47%
    14:00 +24°C° 0 mm 7 mps 756 mmHg 46%
    15:00 +24°C° 0 mm 7 mps 756 mmHg 45%
    16:00 +24°C° 0 mm 7 mps 756 mmHg 48%
    17:00 +23°C° 0 mm 6 mps 756 mmHg 51%
    18:00 +22°C° 0 mm 5 mps 756 mmHg 53%
    19:00 +21°C° 0 mm 5 mps 756 mmHg 58%
    20:00 +20°C° 0 mm 4 mps 756 mmHg 62%
    21:00 +18°C° 0 mm 4 mps 757 mmHg 66%
    22:00 +18°C° 0 mm 3 mps 757 mmHg 68%
    23:00 +17°C° 0 mm 3 mps 756 mmHg 70%

    Tomorrow, 1 June, Monday

    Time Temperature Precipitation Wind Pressure Humidity
    00:00 +17°C° 0 mm 3 mps 756 mmHg 73%
    01:00 +16°C° 0 mm 3 mps 756 mmHg 75%
    02:00 +16°C° 0 mm 3 mps 757 mmHg 77%
    03:00 +14°C° 0 mm 3 mps 757 mmHg 79%
    04:00 +16°C° 0 mm 3 mps 757 mmHg 77%
    05:00 +17°C° 0 mm 4 mps 757 mmHg 75%
    06:00 +18°C° 0 mm 4 mps 756 mmHg 73%
    07:00 +19°C° 0 mm 4 mps 757 mmHg 65%
    08:00 +21°C° 0 mm 5 mps 757 mmHg 58%
    09:00 +22°C° 0 mm 5 mps 757 mmHg 50%
    10:00 +23°C° 0 mm 5 mps 757 mmHg 46%
    11:00 +25°C° 0 mm 5 mps 757 mmHg 42%
    12:00 +26°C° 0 mm 6 mps 757 mmHg 38%
    13:00 +27°C° 0 mm 5 mps 757 mmHg 37%
    14:00 +27°C° 0 mm 5 mps 757 mmHg 36%
    15:00 +27°C° 0 mm 4 mps 757 mmHg 34%
    16:00 +27°C° 0 mm 3 mps 757 mmHg 38%
    17:00 +26°C° 0 mm 3 mps 756 mmHg 41%
    18:00 +26°C° 0 mm 2 mps 756 mmHg 45%
    19:00 +24°C° 0 mm 1 mps 757 mmHg 48%
    20:00 +22°C° 0 mm 1 mps 757 mmHg 51%
    21:00 +20°C° 0 mm 1 mps 757 mmHg 53%
    22:00 +20°C° 0 mm 1 mps 757 mmHg 52%
    23:00 +19°C° 0 mm 2 mps 757 mmHg 51%

    Day after tomorrow, 2 June, Tuesday

    Time Temperature Precipitation Wind Pressure Humidity
    00:00 +19°C° 0 mm 2 mps 756 mmHg 50%
    01:00 +19°C° 0 mm 3 mps 756 mmHg 50%
    02:00 +19°C° 0 mm 3 mps 756 mmHg 50%
    03:00 +19°C° 0 mm 4 mps 756 mmHg 50%
    04:00 +19°C° 0 mm 4 mps 756 mmHg 52%
    05:00 +19°C° 0 mm 4 mps 756 mmHg 54%
    06:00 +19°C° 0 mm 4 mps 756 mmHg 56%
    07:00 +21°C° 0 mm 4 mps 756 mmHg 52%
    08:00 +23°C° 0 mm 4 mps 756 mmHg 48%
    09:00 +25°C° 0 mm 3 mps 756 mmHg 44%
    10:00 +27°C° 0 mm 4 mps 756 mmHg 40%
    11:00 +28°C° 0 mm 4 mps 756 mmHg 36%
    12:00 +30°C° 0 mm 4 mps 756 mmHg 32%
    13:00 +29°C° 0 mm 4 mps 755 mmHg 33%
    14:00 +29°C° 0 mm 4 mps 755 mmHg 33%
    15:00 +29°C° 0 mm 3 mps 755 mmHg 34%
    16:00 +27°C° 0 mm 4 mps 755 mmHg 42%
    17:00 +26°C° 0 mm 4 mps 755 mmHg 49%
    18:00 +23°C° 0 mm 4 mps 755 mmHg 56%
    19:00 +22°C° 0 mm 5 mps 755 mmHg 61%
    20:00 +21°C° 0 mm 5 mps 755 mmHg 65%
    21:00 +20°C° 0 mm 6 mps 755 mmHg 69%
    22:00 +20°C° 0 mm 5 mps 754 mmHg 69%
    23:00 +20°C° 0 mm 5 mps 754 mmHg 68%

    3 June, Wednesday

    Time Temperature Precipitation Wind Pressure Humidity
    00:00 +20°C° 0 mm 4 mps 754 mmHg 68%
    01:00 +20°C° 0 mm 4 mps 754 mmHg 68%
    02:00 +19°C° 0 mm 4 mps 754 mmHg 69%
    03:00 +19°C° 0 mm 4 mps 753 mmHg 69%
    04:00 +19°C° 0 mm 4 mps 753 mmHg 67%
    05:00 +20°C° 0 mm 5 mps 753 mmHg 65%
    06:00 +20°C° 0 mm 5 mps 753 mmHg 62%
    07:00 +22°C° 0 mm 5 mps 753 mmHg 57%
    08:00 +25°C° 0 mm 5 mps 753 mmHg 52%
    09:00 +27°C° 0 mm 5 mps 752 mmHg 47%
    10:00 +28°C° 0 mm 6 mps 752 mmHg 42%
    11:00 +30°C° 0 mm 6 mps 752 mmHg 37%
    12:00 +32°C° 0 mm 6 mps 752 mmHg 32%
    13:00 +33°C° 0 mm 6 mps 752 mmHg 31%
    14:00 +33°C° 0 mm 6 mps 751 mmHg 31%
    15:00 +33°C° 0 mm 6 mps 751 mmHg 30%
    16:00 +32°C° 0 mm 5 mps 751 mmHg 34%
    17:00 +30°C° 0 mm 5 mps 751 mmHg 38%
    18:00 +29°C° 0 mm 5 mps 750 mmHg 42%
    19:00 +28°C° 0.1 mm 5 mps 751 mmHg 45%
    20:00 +27°C° 0.1 mm 6 mps 751 mmHg 47%
    21:00 +24°C° 0.1 mm 6 mps 751 mmHg 50%
    22:00 +25°C° 0.3 mm 5 mps 751 mmHg 53%
    23:00 +23°C° 0.3 mm 4 mps 751 mmHg 55%

    4 June, Thursday

    Time Temperature Precipitation Wind Pressure Humidity
    00:00 +22°C° 0.3 mm 4 mps 751 mmHg 58%
    01:00 +21°C° 0.1 mm 3 mps 751 mmHg 61%
    02:00 +20°C° 0.1 mm 3 mps 751 mmHg 65%
    03:00 +20°C° 0.1 mm 3 mps 751 mmHg 68%
    04:00 +20°C° 0 mm 3 mps 751 mmHg 69%
    05:00 +21°C° 0 mm 4 mps 752 mmHg 70%
    06:00 +21°C° 0 mm 4 mps 752 mmHg 70%
    07:00 +23°C° 0 mm 4 mps 752 mmHg 64%
    08:00 +26°C° 0 mm 3 mps 752 mmHg 59%
    09:00 +28°C° 0 mm 3 mps 752 mmHg 53%
    10:00 +29°C° 0 mm 3 mps 752 mmHg 48%
    11:00 +30°C° 0 mm 2 mps 752 mmHg 43%
    12:00 +31°C° 0 mm 2 mps 752 mmHg 38%
    13:00 +29°C° 0.8 mm 4 mps 752 mmHg 49%
    14:00 +26°C° 0.8 mm 7 mps 752 mmHg 61%
    15:00 +22°C° 0.8 mm 9 mps 752 mmHg 72%
    16:00 +22°C° 1 mm 8 mps 753 mmHg 74%
    17:00 +21°C° 1 mm 7 mps 753 mmHg 76%
    18:00 +21°C° 1 mm 6 mps 753 mmHg 78%
    19:00 +20°C° 0.8 mm 5 mps 753 mmHg 82%
    20:00 +19°C° 0.8 mm 3 mps 754 mmHg 86%
    21:00 +20°C° 0.8 mm 1 mps 754 mmHg 91%
    22:00 +18°C° 0.1 mm 2 mps 755 mmHg 92%
    23:00 +18°C° 0.1 mm 2 mps 755 mmHg 93%

    5 June, Friday

    Time Temperature Precipitation Wind Pressure Humidity
    00:00 +18°C° 0.1 mm 2 mps 755 mmHg 93%
    01:00 +17°C° 0 mm 3 mps 755 mmHg 93%
    02:00 +17°C° 0 mm 3 mps 755 mmHg 93%
    03:00 +17°C° 0 mm 3 mps 755 mmHg 93%
    04:00 +17°C° 0 mm 3 mps 755 mmHg 90%
    05:00 +18°C° 0 mm 3 mps 756 mmHg 86%
    06:00 +18°C° 0 mm 3 mps 756 mmHg 83%
    07:00 +20°C° 0 mm 3 mps 756 mmHg 77%
    08:00 +21°C° 0 mm 4 mps 756 mmHg 72%
    09:00 +23°C° 0 mm 4 mps 757 mmHg 66%
    10:00 +25°C° 0 mm 4 mps 757 mmHg 60%
    11:00 +26°C° 0 mm 4 mps 757 mmHg 55%
    12:00 +27°C° 0 mm 4 mps 757 mmHg 49%
    13:00 +27°C° 0 mm 4 mps 757 mmHg 48%
    14:00 +27°C° 0 mm 4 mps 757 mmHg 48%
    15:00 +27°C° 0 mm 4 mps 757 mmHg 47%
    16:00 +26°C° 0 mm 4 mps 757 mmHg 49%
    17:00 +26°C° 0 mm 3 mps 758 mmHg 50%
    18:00 +26°C° 0 mm 3 mps 758 mmHg 52%
    19:00 +24°C° 0 mm 3 mps 758 mmHg 55%
    20:00 +22°C° 0 mm 3 mps 758 mmHg 59%
    21:00 +21°C° 0 mm 4 mps 758 mmHg 62%
    22:00 +20°C° 0 mm 3 mps 758 mmHg 65%
    23:00 +19°C° 0 mm 3 mps 758 mmHg 68%
    Show more